Tracking 29933 objects as of 2-Dec-2024
HD Live streaming from Space Station
objects crossing your sky now

STARLINK-31968

Track STARLINK-31968 now!
10-day predictions
STARLINK-31968 is classified as:


NORAD ID: 59927
Int'l Code: 2024-106F
Perigee: 449.2 km
Apogee: 453.2 km
Inclination: 43.0 °
Period: 93.5 minutes
Semi major axis: 6822 km
RCS: Unknown
Launch date: June 1, 2024
Source: United States (US)
Launch site: AIR FORCE EASTERN TEST RANGE (AFETR)
Your satellite tracking list
Your tracking list is empty




NASA's NSSDC Master Catalog

Two Line Element Set (TLE):
1 59927U 24106F   24337.54938578  .00000980  00000-0  30747-4 0  9995
2 59927  43.0004  74.6364 0002960 285.1719  74.8810 15.40686478 29755
Source of the keplerian elements: AFSPC